DW0148 Weather Reports


time (UTC)temp
F
wind
direction
speed
knots
gust
knots
rain 1hr
in
rain 24hr
in
rain mn
in
humidity
%
barometer
mb
20260509143739 65 261 0.9 6.1 0.00 0.00 0.00 76 1010.5
20260509143236 65 234 1.7 4.3 0.00 0.00 0.00 76 1010.5
20260509142733 65 213 1.7 4.3 0.00 0.00 0.00 76 1010.5
20260509142232 65 255 1.7 4.3 0.00 0.00 0.00 76 1010.5
20260509141731 65 207 2.6 5.2 0.00 0.00 0.00 74 1010.5
20260509141229 64 200 1.7 5.2 0.00 0.00 0.00 78 1010.5
20260509140727 64 218 1.7 5.2 0.00 0.00 0.00 79 1010.5
20260509140226 64 223 1.7 6.1 0.00 0.00 0.00 79 1010.5
20260509135725 64 233 1.7 6.1 0.00 0.00 0.00 79 1010.5
20260509135224 63 238 2.6 5.2 0.00 0.00 0.00 80 1010.2
20260509134721 63 223 2.6 5.2 0.00 0.00 0.00 80 1010.2
20260509134220 63 214 2.6 6.1 0.00 0.00 0.00 80 1010.2
20260509133717 62 219 1.7 6.1 0.00 0.00 0.00 81 1010.2
20260509133216 62 201 1.7 5.2 0.00 0.00 0.00 83 1010.2
20260509132715 61 230 1.7 2.6 0.00 0.00 0.00 84 1010.2
20260509132212 60 193 0.9 3.5 0.00 0.00 0.00 88 1010.2
20260509131709 59 94 1.7 3.5 0.00 0.00 0.00 89 1010.2
20260509131208 58 252 1.7 2.6 0.00 0.00 0.00 91 1010.2
20260509130705 57 259 0.9 0.9 0.00 0.00 0.00 92 1010.5
20260509130203 56 262 0.9 0.9 0.00 0.00 0.00 93 1010.8
20260509125702 56 167 0.0 0.9 0.00 0.00 0.00 94 1010.8
20260509125200 55 195 0.0 0.9 0.00 0.00 0.00 94 1011.2
20260509124659 55 194 0.0 0.9 0.00 0.00 0.00 95 1010.8
20260509124125 55 196 0.0 0.9 0.00 0.00 0.00 95 1010.8
20260509123550 55 131 0.0 0.9 0.00 0.00 0.00 95 1010.8
20260509123049 54 131 0.0 0.9 0.00 0.00 0.00 95 1010.5
20260509122548 54 131 0.0 0.0 0.00 0.00 0.00 95 1010.8
20260509122045 54 131 0.0 0.0 0.00 0.00 0.00 95 1010.8
20260509121544 54 131 0.0 0.0 0.00 0.00 0.00 95 1010.8
20260509121042 53 131 0.0 0.0 0.00 0.00 0.00 95 1010.8
20260509120541 53 131 0.0 0.0 0.00 0.00 0.00 95 1010.8
20260509120040 53 131 0.0 0.9 0.00 0.00 0.00 95 1010.8
20260509115538 53 131 0.0 0.9 0.00 0.00 0.00 95 1011.2
20260509115037 53 131 0.0 0.9 0.00 0.00 0.00 95 1010.8
20260509114535 53 131 0.9 0.9 0.00 0.00 0.00 95 1010.8
20260509114034 52 131 0.0 0.9 0.00 0.00 0.00 95 1010.8
20260509113501 52 131 0.0 0.0 0.00 0.00 0.00 95 1010.5
20260509113000 52 131 0.0 0.0 0.00 0.00 0.00 95 1010.5
20260509112458 52 131 0.0 0.0 0.00 0.00 0.00 95 1010.5
20260509111956 52 131 0.0 0.0 0.00 0.00 0.00 95 1010.5
20260509111454 52 131 0.0 0.0 0.00 0.00 0.00 95 1010.2
20260509110953 52 131 0.0 0.0 0.00 0.00 0.00 95 1010.2
20260509110452 52 131 0.0 0.0 0.00 0.00 0.00 95 1010.2
20260509105848 52 131 0.0 0.0 0.00 0.00 0.00 95 1010.2
20260509105345 52 131 0.0 0.0 0.00 0.00 0.00 95 1010.2
20260509104844 52 131 0.0 0.0 0.00 0.00 0.00 95 1010.2
20260509104311 52 131 0.0 0.9 0.00 0.00 0.00 95 1010.2
20260509103738 52 131 0.0 0.9 0.00 0.00 0.00 95 1010.2
20260509103235 52 131 0.0 0.9 0.00 0.00 0.00 95 1010.5
20260509102702 52 158 0.0 0.0 0.00 0.00 0.00 95 1010.5
20260509102200 52 158 0.0 0.0 0.00 0.00 0.00 95 1010.5
20260509101628 51 158 0.0 0.0 0.00 0.00 0.00 95 1010.5
20260509101127 51 158 0.0 0.0 0.00 0.00 0.00 95 1010.8
20260509100625 51 158 0.0 0.0 0.00 0.00 0.00 95 1010.8
20260509100124 51 158 0.0 0.9 0.00 0.00 0.00 95 1010.8
20260509095552 51 158 0.0 0.9 0.00 0.00 0.00 95 1010.5
20260509095050 51 158 0.0 0.9 0.00 0.00 0.00 95 1010.5
20260509094549 51 158 0.0 0.9 0.00 0.00 0.00 95 1010.5
20260509094047 50 158 0.0 0.9 0.00 0.00 0.00 95 1010.5
20260509093546 50 158 0.0 0.0 0.00 0.00 0.00 95 1010.8
20260509093044 50 158 0.0 0.0 0.00 0.00 0.00 95 1010.8
20260509092543 50 158 0.0 0.0 0.00 0.00 0.00 95 1010.5
20260509092011 50 158 0.0 0.9 0.00 0.00 0.00 95 1010.5
20260509091509 49 158 0.0 0.9 0.00 0.00 0.00 95 1010.2
20260509091008 49 158 0.0 0.9 0.00 0.00 0.00 95 1010.2
20260509090506 49 158 0.0 0.9 0.00 0.00 0.00 95 1010.2
20260509085933 49 158 0.0 0.0 0.00 0.00 0.00 95 1010.5
20260509085432 48 158 0.0 0.0 0.00 0.00 0.00 95 1010.2
20260509084929 48 158 0.0 0.0 0.00 0.00 0.00 95 1010.2
20260509084428 48 158 0.0 0.0 0.00 0.00 0.00 95 1010.2
20260509083926 48 158 0.0 0.0 0.00 0.00 0.00 95 1010.2
20260509083250 48 158 0.0 0.0 0.00 0.00 0.00 95 1010.2
20260509082716 48 158 0.0 0.0 0.00 0.00 0.00 95 1010.2
20260509082215 48 158 0.0 0.0 0.00 0.00 0.00 95 1010.2
20260509081714 48 158 0.0 0.0 0.00 0.00 0.00 95 1010.2
20260509081212 48 158 0.0 0.0 0.00 0.00 0.00 95 1010.2
20260509080640 48 158 0.0 0.0 0.00 0.00 0.00 95 1010.2
20260509080139 48 158 0.0 0.0 0.00 0.00 0.00 95 1010.5
20260509075637 48 158 0.0 0.0 0.00 0.00 0.00 95 1010.5
20260509075135 48 157 0.0 0.0 0.00 0.00 0.00 95 1010.5
20260509074634 48 158 0.0 0.9 0.00 0.00 0.00 95 1010.2
20260509074100 48 158 0.0 0.9 0.00 0.00 0.00 95 1010.2
20260509073527 48 158 0.0 0.9 0.00 0.00 0.00 95 1010.5
20260509073025 48 158 0.0 0.9 0.00 0.00 0.00 95 1010.2
20260509072523 48 158 0.0 0.0 0.00 0.00 0.00 95 1010.2
20260509072022 48 158 0.0 0.0 0.00 0.00 0.00 95 1010.2
20260509071520 48 158 0.0 0.0 0.00 0.00 0.00 95 1010.5
20260509071018 48 158 0.0 0.0 0.00 0.00 0.00 95 1010.2
20260509070517 48 157 0.0 0.0 0.00 0.00 0.00 94 1010.2
20260509070015 48 158 0.0 0.0 0.00 0.00 0.00 94 1010.2
20260509065514 48 158 0.0 0.0 0.00 0.00 0.00 94 1010.2
20260509064941 48 158 0.0 0.0 0.00 0.00 0.00 94 1010.5
20260509064439 48 158 0.0 0.0 0.00 0.00 0.00 94 1010.5
20260509063938 48 158 0.0 0.0 0.00 0.00 0.00 94 1010.5
20260509063405 48 158 0.0 0.0 0.00 0.00 0.00 94 1010.5
20260509062903 48 158 0.0 0.0 0.00 0.00 0.00 94 1010.5
20260509062402 49 158 0.0 0.9 0.00 0.00 0.00 94 1010.5
20260509061901 49 158 0.0 0.9 0.00 0.00 0.00 93 1010.5
20260509061359 49 158 0.0 0.9 0.00 0.00 0.00 93 1010.5
20260509060826 49 158 0.0 0.9 0.00 0.00 0.00 94 1010.5
20260509060325 49 158 0.0 0.9 0.00 0.00 0.00 94 1010.5
20260509055752 49 158 0.9 0.9 0.00 0.00 0.00 94 1010.5
20260509055251 49 158 0.0 0.9 0.00 0.00 0.00 94 1010.8
20260509054750 49 158 0.9 0.9 0.00 0.00 0.00 94 1010.8
20260509054248 49 158 0.0 0.9 0.00 0.00 0.00 94 1010.8
20260509053747 49 158 0.0 0.9 0.00 0.00 0.00 93 1010.8
20260509053245 49 158 0.0 0.0 0.00 0.00 0.00 93 1011.2
20260509052744 49 158 0.0 0.0 0.00 0.00 0.00 93 1011.2
20260509052211 49 158 0.0 0.9 0.00 0.00 0.00 93 1011.2
20260509051638 49 158 0.0 0.9 0.00 0.00 0.00 93 1011.2
20260509051136 49 158 0.0 0.9 0.00 0.00 0.00 93 1011.2
20260509050635 49 158 0.0 0.9 0.00 0.00 0.00 93 1011.2
20260509050134 49 158 0.9 0.9 0.00 0.00 0.00 93 1011.5
20260509045632 49 158 0.9 0.9 0.00 0.00 0.00 93 1011.2
20260509045130 49 158 0.0 0.0 0.00 0.00 0.00 92 1011.2
20260509044628 49 158 0.0 0.0 0.00 0.00 0.00 92 1011.5
20260509044127 49 158 0.0 0.0 0.00 0.00 0.00 92 1011.5
20260509043626 49 158 0.0 0.0 0.00 0.00 0.00 91 1011.5
20260509043123 49 158 0.0 0.0 0.00 0.00 0.00 91 1011.5
20260509042621 50 158 0.0 0.0 0.00 0.00 0.00 91 1011.5
20260509042119 50 158 0.0 0.0 0.00 0.00 0.00 92 1011.5
20260509041618 50 158 0.0 0.0 0.00 0.00 0.00 91 1011.5
20260509041116 50 158 0.0 0.0 0.00 0.00 0.00 90 1011.5
20260509040615 50 158 0.0 0.0 0.00 0.00 0.00 90 1011.9
20260509040112 50 158 0.0 0.9 0.00 0.00 0.00 90 1011.9
20260509035611 51 158 0.0 0.9 0.00 0.00 0.00 90 1011.9
20260509035109 51 158 0.0 0.9 0.00 0.00 0.00 90 1011.9
20260509034608 51 158 0.0 0.9 0.00 0.00 0.00 89 1011.9
20260509034106 51 158 0.9 0.9 0.00 0.00 0.00 89 1011.9
20260509033606 51 158 0.9 0.9 0.00 0.00 0.00 89 1011.9
20260509033104 51 158 0.0 0.0 0.00 0.00 0.00 88 1011.9
20260509032501 51 158 0.0 0.0 0.00 0.00 0.00 87 1011.9
20260509031958 52 158 0.0 0.9 0.00 0.00 0.00 87 1011.9
20260509031457 52 158 0.0 0.9 0.00 0.00 0.00 87 1011.9
20260509030956 52 158 0.0 0.9 0.00 0.00 0.00 87 1011.9
20260509030453 52 158 0.0 0.9 0.00 0.00 0.00 87 1011.9
20260509025951 52 158 0.9 0.9 0.00 0.00 0.00 87 1011.9
20260509025448 52 158 0.9 0.9 0.00 0.00 0.00 87 1011.9
20260509024946 53 158 0.9 0.9 0.00 0.00 0.00 86 1011.9
20260509024445 53 158 0.9 0.9 0.00 0.00 0.00 86 1011.9
20260509023912 53 158 0.9 0.9 0.00 0.00 0.00 86 1011.5
20260509023410 53 158 0.0 0.9 0.00 0.00 0.00 85 1011.9
20260509022909 53 158 0.0 0.9 0.00 0.00 0.00 85 1011.9
20260509022407 54 158 0.9 0.9 0.00 0.00 0.00 84 1011.9
20260509021906 54 158 0.0 0.9 0.00 0.00 0.00 83 1011.9
20260509021405 54 158 0.9 0.9 0.00 0.00 0.00 83 1011.9
20260509020903 54 158 0.0 0.9 0.00 0.00 0.00 82 1011.9
20260509020402 54 158 0.9 0.9 0.00 0.00 0.00 82 1011.9
20260509015900 54 158 0.9 0.9 0.00 0.00 0.00 82 1011.5
20260509015359 54 158 0.9 0.9 0.00 0.00 0.00 82 1011.5
20260509014826 54 158 0.0 0.9 0.00 0.00 0.00 82 1011.5
20260509014325 55 158 0.0 0.9 0.00 0.00 0.00 82 1011.5
20260509013824 55 158 0.0 0.9 0.00 0.00 0.00 82 1011.5
20260509013322 55 158 0.0 0.9 0.00 0.00 0.00 82 1011.5
20260509012821 55 158 0.0 0.9 0.00 0.00 0.00 82 1011.5
20260509012320 56 158 0.0 0.9 0.00 0.00 0.00 82 1011.2
20260509011819 56 158 0.9 0.9 0.00 0.00 0.00 81 1011.2
20260509011318 56 158 0.9 0.9 0.00 0.00 0.00 81 1011.2
20260509010816 56 158 0.9 0.9 0.00 0.00 0.00 81 1011.2
20260509010315 56 159 0.9 0.9 0.00 0.00 0.00 81 1011.2
20260509005814 56 180 0.9 0.9 0.00 0.00 0.00 81 1011.2
20260509005313 57 183 0.0 0.9 0.00 0.00 0.00 81 1011.2
20260509004811 57 186 0.0 0.9 0.00 0.00 0.00 80 1011.2
20260509004310 57 186 0.9 0.9 0.00 0.00 0.00 81 1011.2
20260509003808 57 185 0.0 0.9 0.00 0.00 0.00 80 1011.2
20260509003307 58 186 0.0 0.9 0.00 0.00 0.00 79 1011.2
20260509002805 58 187 0.0 0.9 0.00 0.00 0.00 79 1011.2
20260509002306 59 187 0.0 0.9 0.00 0.00 0.00 79 1011.2
20260509001659 60 187 0.0 0.9 0.00 0.00 0.00 77 1011.2
20260509001157 60 187 0.0 0.9 0.00 0.00 0.00 75 1011.5
20260509000656 61 187 0.0 0.0 0.00 0.00 0.00 73 1011.2
20260509000155 61 187 0.0 0.0 0.00 0.00 0.00 72 1011.2
20260508235653 62 187 0.0 0.9 0.00 0.00 0.00 70 1011.2
20260508235151 63 187 0.0 0.9 0.00 0.00 0.00 67 1011.2
20260508234649 64 187 0.0 0.9 0.00 0.00 0.00 64 1011.5
20260508234148 64 187 0.0 3.5 0.00 0.00 0.00 59 1011.5
20260508233647 65 224 0.9 3.5 0.00 0.00 0.00 56 1011.5
20260508233146 65 245 0.0 3.5 0.00 0.00 0.00 56 1011.5
20260508232644 66 205 1.7 3.5 0.00 0.00 0.00 56 1011.5
20260508232037 67 181 0.0 1.7 0.00 0.00 0.00 52 1011.5
20260508231505 67 273 0.0 6.1 0.00 0.00 0.00 53 1011.5
20260508231004 67 208 0.9 6.1 0.00 0.00 0.00 53 1011.5
20260508230502 68 232 0.9 6.1 0.00 0.00 0.00 50 1011.5
20260508230001 68 231 2.6 6.1 0.00 0.00 0.00 47 1011.5
20260508225459 68 235 0.9 4.3 0.00 0.00 0.00 47 1011.5
20260508224958 68 230 1.7 3.5 0.00 0.00 0.00 46 1011.5
20260508224457 68 230 1.7 3.5 0.00 0.00 0.00 47 1011.5
20260508223955 69 234 1.7 2.6 0.00 0.00 0.00 47 1011.5
20260508223454 69 262 0.9 1.7 0.00 0.00 0.00 51 1011.5
20260508222953 69 247 0.9 1.7 0.00 0.00 0.00 47 1011.5
20260508222450 69 259 0.0 1.7 0.00 0.00 0.00 48 1011.5
20260508221949 69 244 0.9 3.5 0.00 0.00 0.00 45 1011.5
20260508221448 69 266 0.9 3.5 0.00 0.00 0.00 48 1011.5
20260508220947 69 269 0.9 3.5 0.00 0.00 0.00 44 1011.5
20260508220413 70 228 1.7 3.5 0.00 0.00 0.00 43 1011.5
20260508215912 70 302 0.9 3.5 0.00 0.00 0.00 48 1011.5
20260508215410 70 299 0.9 3.5 0.00 0.00 0.00 45 1011.5
20260508214807 70 142 0.9 6.1 0.00 0.00 0.00 42 1011.9
20260508214233 70 270 1.7 7.0 0.00 0.00 0.00 40 1011.9
20260508213731 71 309 0.9 7.0 0.00 0.00 0.00 42 1011.9
20260508213229 71 264 1.7 6.1 0.00 0.00 0.00 40 1011.9
20260508212728 71 276 0.9 7.0 0.00 0.00 0.00 40 1011.9
20260508212226 71 220 3.5 7.0 0.00 0.00 0.00 39 1011.9
20260508211724 72 248 2.6 6.1 0.00 0.00 0.00 38 1011.9
20260508211223 72 219 1.7 6.1 0.00 0.00 0.00 39 1011.9
20260508210722 72 248 1.7 4.3 0.00 0.00 0.00 41 1012.2
20260508210148 72 108 2.6 5.2 0.00 0.00 0.00 46 1011.9
20260508205647 73 235 2.6 6.1 0.00 0.00 0.00 42 1011.9
20260508205146 73 199 1.7 6.1 0.00 0.00 0.00 43 1011.9
20260508204643 73 229 2.6 6.1 0.00 0.00 0.00 40 1011.9
20260508204142 73 252 1.7 6.1 0.00 0.00 0.00 43 1011.9
20260508203609 73 202 2.6 3.5 0.00 0.00 0.00 42 1011.9
20260508203107 72 81 0.9 3.5 0.00 0.00 0.00 43 1011.9
20260508202606 72 262 0.9 3.5 0.00 0.00 0.00 45 1012.2
20260508202033 71 187 0.9 3.5 0.00 0.00 0.00 43 1012.2
20260508201532 70 47 0.9 5.2 0.00 0.00 0.00 48 1012.2
20260508200959 70 12 1.7 5.2 0.00 0.00 0.00 45 1012.5
20260508200425 71 55 2.6 5.2 0.00 0.00 0.00 42 1012.2
20260508195923 71 227 0.9 3.5 0.00 0.00 0.00 44 1012.2
20260508195422 71 147 0.9 3.5 0.00 0.00 0.00 44 1012.2
20260508194920 71 333 1.7 3.5 0.00 0.00 0.00 47 1012.5
20260508194419 71 141 1.7 3.5 0.00 0.00 0.00 43 1012.5
20260508193916 71 61 0.9 3.5 0.00 0.00 0.00 44 1012.9
20260508193414 71 238 1.7 3.5 0.00 0.00 0.00 43 1012.9
20260508192913 70 193 0.9 3.5 0.00 0.00 0.00 44 1012.9
20260508192410 69 221 1.7 3.5 0.00 0.00 0.00 48 1013.2
20260508191837 69 229 0.9 4.3 0.00 0.00 0.00 48 1013.2
20260508191335 69 54 1.7 4.3 0.00 0.00 0.00 46 1013.2
20260508190833 69 13 0.9 4.3 0.00 0.00 0.00 52 1013.5
20260508190332 69 51 1.7 4.3 0.00 0.00 0.00 47 1013.5
20260508185831 69 85 1.7 5.2 0.00 0.00 0.00 47 1013.9
20260508185330 70 57 2.6 5.2 0.00 0.00 0.00 48 1013.9
20260508184828 70 70 0.9 3.5 0.00 0.00 0.00 48 1014.2
20260508184326 70 41 1.7 3.5 0.00 0.00 0.00 47 1014.2
20260508183823 70 260 0.9 3.5 0.00 0.00 0.00 51 1014.2
20260508183322 70 152 0.9 3.5 0.00 0.00 0.00 48 1014.2
20260508182820 70 243 1.7 2.6 0.00 0.00 0.00 47 1014.2
20260508182319 70 236 0.0 2.6 0.00 0.00 0.00 49 1014.2
20260508181643 70 12 0.9 2.6 0.00 0.00 0.00 52 1014.2
20260508181142 69 235 0.9 3.5 0.00 0.00 0.00 48 1014.6
20260508180639 70 54 1.7 3.5 0.00 0.00 0.00 46 1014.6
20260508180138 70 144 1.7 3.5 0.00 0.00 0.00 48 1014.6
20260508175637 70 188 1.7 3.5 0.00 0.00 0.00 49 1014.6
20260508175136 70 267 0.9 4.3 0.00 0.00 0.00 50 1014.6
20260508174633 70 47 0.9 4.3 0.00 0.00 0.00 49 1014.6
20260508174131 70 172 0.9 4.3 0.00 0.00 0.00 54 1014.6
20260508173630 69 196 1.7 4.3 0.00 0.00 0.00 51 1014.9
20260508173129 69 248 0.9 2.6 0.00 0.00 0.00 50 1014.9
20260508172628 68 170 0.9 2.6 0.00 0.00 0.00 48 1014.9
20260508172127 68 123 0.9 2.6 0.00 0.00 0.00 51 1014.9
20260508171624 68 272 0.9 2.6 0.00 0.00 0.00 54 1014.9
20260508171123 68 188 1.7 2.6 0.00 0.00 0.00 51 1015.2
20260508170621 68 143 1.7 2.6 0.00 0.00 0.00 52 1015.2
20260508170120 68 75 0.9 2.6 0.00 0.00 0.00 56 1015.6
20260508165619 68 271 0.9 2.6 0.00 0.00 0.00 53 1015.6
20260508165045 67 192 0.9 2.6 0.00 0.00 0.00 55 1015.6
20260508164543 67 257 0.9 4.3 0.00 0.00 0.00 58 1015.6
20260508164041 67 91 1.7 4.3 0.00 0.00 0.00 57 1015.9
20260508163539 67 280 0.9 4.3 0.00 0.00 0.00 56 1015.9
20260508163037 66 225 1.7 4.3 0.00 0.00 0.00 57 1016.3
20260508162536 66 165 1.7 3.5 0.00 0.00 0.00 59 1016.3
20260508162035 66 224 0.9 3.5 0.00 0.00 0.00 60 1016.3
20260508161503 65 41 0.9 3.5 0.00 0.00 0.00 62 1016.3
20260508161001 65 45 0.9 3.5 0.00 0.00 0.00 61 1016.3
20260508160459 64 269 1.7 4.3 0.00 0.00 0.00 64 1016.6
20260508155958 64 111 0.9 4.3 0.00 0.00 0.00 61 1016.6
20260508155456 64 176 1.7 5.2 0.00 0.00 0.00 64 1016.6
20260508154955 64 169 2.6 5.2 0.00 0.00 0.00 59 1016.6
20260508154452 65 194 2.6 4.3 0.00 0.00 0.00 61 1016.6
20260508153951 64 258 0.9 1.7 0.00 0.00 0.00 64 1016.6
20260508153419 64 335 0.9 3.5 0.00 0.00 0.00 68 1016.6
20260508152847 64 291 0.9 3.5 0.00 0.00 0.00 71 1016.6
20260508152346 64 199 0.9 3.5 0.00 0.00 0.00 68 1016.9
20260508151845 64 185 1.7 3.5 0.00 0.00 0.00 67 1016.9
20260508151311 64 303 0.9 2.6 0.00 0.00 0.00 71 1016.9
20260508150707 63 279 0.9 2.6 0.00 0.00 0.00 73 1016.9
20260508150206 63 208 1.7 2.6 0.00 0.00 0.00 71 1016.9
20260508145633 63 310 0.9 4.3 0.00 0.00 0.00 70 1016.9
20260508145129 63 15 0.9 4.3 0.00 0.00 0.00 73 1016.9
20260508144628 63 286 0.9 5.2 0.00 0.00 0.00 75 1016.9
20260508144126 63 226 0.9 5.2 0.00 0.00 0.00 75 1016.9